Time,TemperatureF,DewpointF,PressureIn,WindDirection,WindDirectionDegrees,WindSpeedMPH,WindSpeedGustMPH,Humidity,HourlyPrecipIn,Conditions,Clouds,dailyrainin,SoftwareType,DateUTC
2016-09-29 00:02:00,45.0,44.0,30.20,East,90,0.0,-999.0,98,0.00,,,0.00,,2016-09-29 04:02:00,
2016-09-29 00:08:00,46.4,45.0,30.21,NE,45,3.0,-999.0,98,0.00,,,0.00,,2016-09-29 04:08:00,
2016-09-29 00:13:00,45.9,45.0,30.21,NNW,338,1.0,-999.0,98,0.00,,,0.00,,2016-09-29 04:13:00,
2016-09-29 00:19:00,45.9,45.0,30.21,NNE,23,1.0,-999.0,98,0.00,,,0.00,,2016-09-29 04:19:00,
2016-09-29 00:24:00,45.5,44.0,30.21,WNW,293,1.0,-999.0,98,0.00,,,0.00,,2016-09-29 04:24:00,
2016-09-29 00:29:00,45.5,44.0,30.21,North,0,0.0,-999.0,98,0.00,,,0.00,,2016-09-29 04:29:00,
2016-09-29 00:35:00,45.2,44.0,30.21,ESE,113,1.0,-999.0,98,0.00,,,0.00,,2016-09-29 04:35:00,
2016-09-29 00:40:00,45.2,44.0,30.21,ESE,113,0.0,-999.0,98,0.00,,,0.00,,2016-09-29 04:40:00,
2016-09-29 00:46:00,45.0,44.0,30.21,WNW,293,0.0,-999.0,98,0.00,,,0.00,,2016-09-29 04:46:00,
2016-09-29 00:51:00,45.2,44.0,30.21,SE,135,1.0,-999.0,98,0.00,,,0.00,,2016-09-29 04:51:00,
2016-09-29 00:57:00,45.0,44.0,30.21,SSE,158,0.0,-999.0,98,0.00,,,0.00,,2016-09-29 04:57:00,
2016-09-29 01:02:00,44.8,44.0,30.21,East,90,0.0,-999.0,98,0.00,,,0.00,,2016-09-29 05:02:00,
2016-09-29 01:08:00,44.6,44.0,30.21,NE,45,2.0,-999.0,98,0.00,,,0.00,,2016-09-29 05:08:00,
2016-09-29 01:13:00,44.8,44.0,30.21,East,90,1.0,-999.0,98,0.00,,,0.00,,2016-09-29 05:13:00,
2016-09-29 01:18:00,44.8,44.0,30.21,SSE,158,1.0,-999.0,98,0.00,,,0.00,,2016-09-29 05:18:00,
2016-09-29 01:24:00,44.8,44.0,30.22,ESE,113,1.0,-999.0,98,0.00,,,0.00,,2016-09-29 05:24:00,
2016-09-29 01:29:00,44.8,44.0,30.22,ESE,113,0.0,-999.0,98,0.00,,,0.00,,2016-09-29 05:29:00,
2016-09-29 01:35:00,44.8,44.0,30.21,ESE,113,0.0,-999.0,98,0.00,,,0.00,,2016-09-29 05:35:00,
2016-09-29 01:40:00,45.0,44.0,30.21,NE,45,0.0,-999.0,98,0.00,,,0.00,,2016-09-29 05:40:00,
2016-09-29 01:46:00,45.2,45.0,30.22,West,270,1.0,-999.0,98,0.00,,,0.00,,2016-09-29 05:46:00,
2016-09-29 01:51:00,45.2,45.0,30.21,ESE,113,1.0,-999.0,98,0.00,,,0.00,,2016-09-29 05:51:00,
2016-09-29 02:02:00,45.2,45.0,30.21,NNE,23,0.0,-999.0,98,0.00,,,0.00,,2016-09-29 06:02:00,
2016-09-29 02:08:00,45.0,44.0,30.22,NNE,23,0.0,-999.0,98,0.00,,,0.00,,2016-09-29 06:08:00,
2016-09-29 02:13:00,45.0,44.0,30.21,NNE,23,2.0,-999.0,98,0.00,,,0.00,,2016-09-29 06:13:00,
2016-09-29 02:19:00,44.8,44.0,30.21,South,180,0.0,-999.0,98,0.00,,,0.00,,2016-09-29 06:19:00,
2016-09-29 02:24:00,44.8,44.0,30.22,ESE,113,1.0,-999.0,98,0.00,,,0.00,,2016-09-29 06:24:00,
2016-09-29 02:30:00,44.8,44.0,30.21,NNE,23,2.0,-999.0,98,0.00,,,0.00,,2016-09-29 06:30:00,
2016-09-29 02:35:00,44.8,44.0,30.21,WNW,293,2.0,-999.0,98,0.00,,,0.00,,2016-09-29 06:35:00,
2016-09-29 02:41:00,44.8,44.0,30.22,NNE,23,2.0,-999.0,98,0.00,,,0.00,,2016-09-29 06:41:00,
2016-09-29 02:46:00,44.6,44.0,30.21,ESE,113,1.0,-999.0,98,0.00,,,0.00,,2016-09-29 06:46:00,
2016-09-29 02:52:00,44.6,44.0,30.21,SE,135,0.0,-999.0,98,0.00,,,0.00,,2016-09-29 06:52:00,
2016-09-29 02:57:00,44.8,44.0,30.22,SE,135,1.0,-999.0,98,0.00,,,0.00,,2016-09-29 06:57:00,
2016-09-29 03:03:00,45.0,44.0,30.22,South,180,2.0,-999.0,98,0.00,,,0.00,,2016-09-29 07:03:00,
2016-09-29 03:08:00,45.0,44.0,30.22,East,90,1.0,-999.0,98,0.00,,,0.00,,2016-09-29 07:08:00,
2016-09-29 03:13:00,45.0,44.0,30.22,WNW,293,1.0,-999.0,98,0.00,,,0.00,,2016-09-29 07:13:00,
2016-09-29 03:19:00,45.0,44.0,30.22,NE,45,1.0,-999.0,98,0.00,,,0.00,,2016-09-29 07:19:00,
2016-09-29 03:24:00,45.0,44.0,30.22,NNE,23,1.0,-999.0,98,0.00,,,0.00,,2016-09-29 07:24:00,
2016-09-29 03:30:00,45.2,45.0,30.22,NE,45,1.0,-999.0,98,0.00,,,0.00,,2016-09-29 07:30:00,
2016-09-29 03:35:00,45.2,45.0,30.22,NNE,23,1.0,-999.0,98,0.00,,,0.00,,2016-09-29 07:35:00,
2016-09-29 03:41:00,45.2,45.0,30.22,NE,45,1.0,-999.0,98,0.00,,,0.00,,2016-09-29 07:41:00,
2016-09-29 03:47:00,45.2,45.0,30.22,South,180,1.0,-999.0,98,0.00,,,0.00,,2016-09-29 07:47:00,
2016-09-29 03:52:00,45.2,45.0,30.22,ESE,113,2.0,-999.0,98,0.00,,,0.00,,2016-09-29 07:52:00,
2016-09-29 03:58:00,45.2,45.0,30.22,NNE,23,2.0,-999.0,98,0.00,,,0.00,,2016-09-29 07:58:00,
2016-09-29 04:03:00,45.2,45.0,30.23,SW,225,2.0,-999.0,98,0.00,,,0.00,,2016-09-29 08:03:00,
2016-09-29 04:08:00,45.2,45.0,30.23,ESE,113,1.0,-999.0,98,0.00,,,0.00,,2016-09-29 08:08:00,
2016-09-29 04:15:00,45.5,45.0,30.23,NNE,23,0.0,-999.0,98,0.00,,,0.00,,2016-09-29 08:15:00,
2016-09-29 04:20:00,45.7,45.0,30.23,ENE,68,0.0,-999.0,98,0.00,,,0.00,,2016-09-29 08:20:00,
2016-09-29 04:32:00,45.9,45.0,30.24,NE,45,0.0,-999.0,98,0.00,,,0.00,,2016-09-29 08:32:00,
2016-09-29 04:37:00,45.9,45.0,30.24,NE,45,0.0,-999.0,98,0.00,,,0.00,,2016-09-29 08:37:00,
2016-09-29 04:43:00,45.9,45.0,30.24,NE,45,1.0,-999.0,98,0.00,,,0.00,,2016-09-29 08:43:00,
2016-09-29 04:48:00,45.9,45.0,30.24,NE,45,1.0,-999.0,98,0.00,,,0.00,,2016-09-29 08:48:00,
2016-09-29 04:54:00,46.1,45.0,30.24,NE,45,1.0,-999.0,98,0.00,,,0.00,,2016-09-29 08:54:00,
2016-09-29 04:59:00,46.1,45.0,30.24,ENE,68,1.0,-999.0,98,0.00,,,0.00,,2016-09-29 08:59:00,
2016-09-29 05:04:00,46.1,45.0,30.24,NNW,338,1.0,-999.0,98,0.00,,,0.00,,2016-09-29 09:04:00,
2016-09-29 05:10:00,46.1,45.0,30.25,NNW,338,1.0,-999.0,98,0.00,,,0.00,,2016-09-29 09:10:00,
2016-09-29 05:21:00,46.1,45.0,30.24,West,270,2.0,-999.0,98,0.00,,,0.00,,2016-09-29 09:21:00,
2016-09-29 05:27:00,45.9,45.0,30.25,WNW,293,4.0,-999.0,98,0.00,,,0.00,,2016-09-29 09:27:00,
2016-09-29 05:38:00,45.9,45.0,30.25,NW,315,2.0,-999.0,98,0.00,,,0.00,,2016-09-29 09:38:00,
2016-09-29 05:43:00,45.9,45.0,30.25,North,0,1.0,-999.0,98,0.00,,,0.00,,2016-09-29 09:43:00,
2016-09-29 05:49:00,45.9,45.0,30.25,West,270,2.0,-999.0,98,0.00,,,0.00,,2016-09-29 09:49:00,
2016-09-29 05:54:00,45.9,45.0,30.25,East,90,3.0,-999.0,98,0.00,,,0.00,,2016-09-29 09:54:00,
2016-09-29 06:00:00,45.5,45.0,30.25,WNW,293,2.0,-999.0,98,0.00,,,0.00,,2016-09-29 10:00:00,
2016-09-29 06:05:00,45.5,45.0,30.26,WNW,293,2.0,-999.0,98,0.00,,,0.00,,2016-09-29 10:05:00,
2016-09-29 06:11:00,45.5,45.0,30.26,ESE,113,1.0,-999.0,98,0.00,,,0.00,,2016-09-29 10:11:00,
2016-09-29 06:16:00,45.5,45.0,30.26,SSE,158,2.0,-999.0,98,0.00,,,0.00,,2016-09-29 10:16:00,
2016-09-29 06:22:00,45.5,45.0,30.26,ENE,68,1.0,-999.0,98,0.00,,,0.00,,2016-09-29 10:22:00,
2016-09-29 06:27:00,45.5,45.0,30.26,NE,45,1.0,-999.0,98,0.00,,,0.00,,2016-09-29 10:27:00,
2016-09-29 06:33:00,45.2,45.0,30.27,South,180,1.0,-999.0,98,0.00,,,0.00,,2016-09-29 10:33:00,
2016-09-29 06:38:00,45.2,45.0,30.28,NNW,338,2.0,-999.0,98,0.00,,,0.00,,2016-09-29 10:38:00,
2016-09-29 06:44:00,45.0,44.0,30.28,NNE,23,2.0,-999.0,98,0.00,,,0.00,,2016-09-29 10:44:00,
2016-09-29 06:49:00,45.0,44.0,30.28,ESE,113,1.0,-999.0,98,0.00,,,0.00,,2016-09-29 10:49:00,
2016-09-29 06:55:00,45.0,44.0,30.28,NE,45,1.0,-999.0,98,0.00,,,0.00,,2016-09-29 10:55:00,
2016-09-29 07:01:00,45.0,44.0,30.28,NNE,23,2.0,-999.0,98,0.00,,,0.00,,2016-09-29 11:01:00,
2016-09-29 07:06:00,45.0,44.0,30.28,NE,45,1.0,-999.0,98,0.00,,,0.00,,2016-09-29 11:06:00,
2016-09-29 07:12:00,45.0,44.0,30.28,NE,45,3.0,-999.0,98,0.00,,,0.00,,2016-09-29 11:12:00,
2016-09-29 07:17:00,45.0,44.0,30.29,NNW,338,2.0,-999.0,98,0.00,,,0.00,,2016-09-29 11:17:00,
2016-09-29 07:23:00,45.0,44.0,30.29,NNW,338,1.0,-999.0,98,0.00,,,0.00,,2016-09-29 11:23:00,
2016-09-29 07:28:00,45.0,44.0,30.29,SE,135,1.0,-999.0,98,0.00,,,0.00,,2016-09-29 11:28:00,
2016-09-29 07:34:00,45.0,44.0,30.30,NE,45,0.0,-999.0,98,0.00,,,0.00,,2016-09-29 11:34:00,
2016-09-29 07:39:00,45.2,44.0,30.30,West,270,1.0,-999.0,98,0.00,,,0.00,,2016-09-29 11:39:00,
2016-09-29 07:44:00,45.5,44.0,30.30,NNE,23,2.0,-999.0,98,0.00,,,0.00,,2016-09-29 11:44:00,
2016-09-29 07:50:00,45.9,45.0,30.30,ENE,68,1.0,-999.0,98,0.00,,,0.00,,2016-09-29 11:50:00,
2016-09-29 07:56:00,45.9,45.0,30.30,East,90,2.0,-999.0,98,0.00,,,0.00,,2016-09-29 11:56:00,
2016-09-29 08:02:00,45.9,45.0,30.30,ESE,113,1.0,-999.0,96,0.00,,,0.00,,2016-09-29 12:02:00,
2016-09-29 08:08:00,46.4,45.0,30.30,WNW,293,1.0,-999.0,96,0.00,,,0.00,,2016-09-29 12:08:00,
2016-09-29 08:13:00,46.4,45.0,30.30,ENE,68,2.0,-999.0,95,0.00,,,0.00,,2016-09-29 12:13:00,
2016-09-29 08:19:00,46.9,45.0,30.30,NNE,23,1.0,-999.0,95,0.00,,,0.00,,2016-09-29 12:19:00,
2016-09-29 08:24:00,46.7,45.0,30.30,NE,45,1.0,-999.0,93,0.00,,,0.00,,2016-09-29 12:24:00,
2016-09-29 08:29:00,46.9,45.0,30.30,NNE,23,2.0,-999.0,93,0.00,,,0.00,,2016-09-29 12:29:00,
2016-09-29 08:35:00,47.3,45.0,30.31,North,0,2.0,-999.0,93,0.00,,,0.00,,2016-09-29 12:35:00,
2016-09-29 08:40:00,47.5,45.0,30.31,NNE,23,1.0,-999.0,93,0.00,,,0.00,,2016-09-29 12:40:00,
2016-09-29 08:46:00,47.7,45.0,30.30,North,0,2.0,-999.0,93,0.00,,,0.00,,2016-09-29 12:46:00,
2016-09-29 08:51:00,48.0,46.0,30.31,WNW,293,3.0,-999.0,93,0.00,,,0.00,,2016-09-29 12:51:00,
2016-09-29 08:57:00,48.4,46.0,30.31,NW,315,1.0,-999.0,91,0.00,,,0.00,,2016-09-29 12:57:00,
2016-09-29 09:02:00,48.4,45.0,30.32,South,180,1.0,-999.0,91,0.00,,,0.00,,2016-09-29 13:02:00,
2016-09-29 09:08:00,48.9,46.0,30.32,NW,315,3.0,-999.0,91,0.00,,,0.00,,2016-09-29 13:08:00,
2016-09-29 09:13:00,48.9,46.0,30.32,ESE,113,2.0,-999.0,91,0.00,,,0.00,,2016-09-29 13:13:00,
2016-09-29 09:19:00,48.4,45.0,30.32,NNE,23,4.0,-999.0,90,0.00,,,0.00,,2016-09-29 13:19:00,
2016-09-29 09:24:00,48.4,45.0,30.32,NW,315,2.0,-999.0,91,0.00,,,0.00,,2016-09-29 13:24:00,
2016-09-29 09:30:00,48.9,46.0,30.32,North,0,2.0,-999.0,90,0.00,,,0.00,,2016-09-29 13:30:00,
2016-09-29 09:35:00,48.9,46.0,30.32,WNW,293,1.0,-999.0,90,0.00,,,0.00,,2016-09-29 13:35:00,
2016-09-29 09:41:00,49.2,46.0,30.33,NE,45,2.0,-999.0,88,0.00,,,0.00,,2016-09-29 13:41:00,
2016-09-29 09:46:00,49.6,46.0,30.33,SE,135,1.0,-999.0,88,0.00,,,0.00,,2016-09-29 13:46:00,
2016-09-29 09:52:00,49.8,46.0,30.33,NE,45,2.0,-999.0,86,0.00,,,0.00,,2016-09-29 13:52:00,
2016-09-29 09:57:00,48.9,45.0,30.33,East,90,1.0,-999.0,88,0.00,,,0.00,,2016-09-29 13:57:00,
2016-09-29 10:03:00,50.1,47.0,30.33,ESE,113,1.0,-999.0,88,0.00,,,0.00,,2016-09-29 14:03:00,
2016-09-29 10:08:00,49.6,46.0,30.33,NW,315,2.0,-999.0,88,0.00,,,0.00,,2016-09-29 14:08:00,
2016-09-29 10:14:00,49.6,45.0,30.32,WNW,293,3.0,-999.0,86,0.00,,,0.00,,2016-09-29 14:14:00,
2016-09-29 10:19:00,50.3,46.0,30.32,West,270,1.0,-999.0,86,0.00,,,0.00,,2016-09-29 14:19:00,
2016-09-29 10:24:00,51.0,47.0,30.32,ESE,113,1.0,-999.0,86,0.00,,,0.00,,2016-09-29 14:24:00,
2016-09-29 10:30:00,52.2,47.0,30.32,SE,135,1.0,-999.0,85,0.00,,,0.00,,2016-09-29 14:30:00,
2016-09-29 10:35:00,52.3,47.0,30.32,SW,225,1.0,-999.0,83,0.00,,,0.00,,2016-09-29 14:35:00,
2016-09-29 10:41:00,53.4,48.0,30.31,ESE,113,3.0,-999.0,83,0.00,,,0.00,,2016-09-29 14:41:00,
2016-09-29 10:46:00,53.8,49.0,30.32,NE,45,2.0,-999.0,83,0.00,,,0.00,,2016-09-29 14:46:00,
2016-09-29 10:52:00,54.0,48.0,30.31,NNW,338,5.0,-999.0,81,0.00,,,0.00,,2016-09-29 14:52:00,
2016-09-29 10:57:00,54.9,48.0,30.31,WNW,293,3.0,-999.0,80,0.00,,,0.00,,2016-09-29 14:57:00,
2016-09-29 11:03:00,55.3,49.0,30.31,NW,315,2.0,-999.0,80,0.00,,,0.00,,2016-09-29 15:03:00,
2016-09-29 11:08:00,55.9,49.0,30.31,West,270,2.0,-999.0,78,0.00,,,0.00,,2016-09-29 15:08:00,
2016-09-29 11:19:00,56.9,49.0,30.30,NE,45,2.0,-999.0,76,0.00,,,0.00,,2016-09-29 15:19:00,
2016-09-29 11:30:00,58.2,49.0,30.30,West,270,2.0,-999.0,73,0.00,,,0.00,,2016-09-29 15:30:00,
2016-09-29 11:36:00,58.8,49.0,30.29,North,0,2.0,-999.0,71,0.00,,,0.00,,2016-09-29 15:36:00,
2016-09-29 11:41:00,60.2,50.0,30.30,SSE,158,2.0,-999.0,70,0.00,,,0.00,,2016-09-29 15:41:00,
2016-09-29 11:46:00,60.2,50.0,30.30,NE,45,2.0,-999.0,69,0.00,,,0.00,,2016-09-29 15:46:00,
2016-09-29 11:52:00,61.1,50.0,30.29,East,90,1.0,-999.0,68,0.00,,,0.00,,2016-09-29 15:52:00,
2016-09-29 11:57:00,61.0,50.0,30.28,NNE,23,2.0,-999.0,68,0.00,,,0.00,,2016-09-29 15:57:00,
2016-09-29 12:03:00,61.1,47.0,30.29,South,180,4.0,-999.0,61,0.00,,,0.00,,2016-09-29 16:03:00,
2016-09-29 12:08:00,61.9,46.0,30.28,West,270,4.0,-999.0,58,0.00,,,0.00,,2016-09-29 16:08:00,
2016-09-29 12:14:00,62.2,47.0,30.27,West,270,4.0,-999.0,59,0.00,,,0.00,,2016-09-29 16:14:00,
2016-09-29 12:19:00,62.1,47.0,30.28,WNW,293,2.0,-999.0,59,0.00,,,0.00,,2016-09-29 16:19:00,
2016-09-29 12:25:00,61.7,47.0,30.29,West,270,1.0,-999.0,59,0.00,,,0.00,,2016-09-29 16:25:00,
2016-09-29 12:30:00,62.7,47.0,30.29,North,0,4.0,-999.0,58,0.00,,,0.00,,2016-09-29 16:30:00,
2016-09-29 12:36:00,62.7,48.0,30.28,NW,315,4.0,-999.0,60,0.00,,,0.00,,2016-09-29 16:36:00,
2016-09-29 12:41:00,63.0,48.0,30.27,WNW,293,4.0,-999.0,59,0.00,,,0.00,,2016-09-29 16:41:00,
2016-09-29 12:47:00,62.5,47.0,30.27,SW,225,4.0,-999.0,58,0.00,,,0.00,,2016-09-29 16:47:00,
2016-09-29 12:57:00,63.6,48.0,30.26,West,270,2.0,-999.0,56,0.00,,,0.00,,2016-09-29 16:57:00,
2016-09-29 13:03:00,63.9,47.0,30.27,ESE,113,2.0,-999.0,55,0.00,,,0.00,,2016-09-29 17:03:00,
2016-09-29 13:08:00,64.4,47.0,30.26,WNW,293,4.0,-999.0,55,0.00,,,0.00,,2016-09-29 17:08:00,
2016-09-29 13:14:00,65.5,49.0,30.26,SSE,158,1.0,-999.0,55,0.00,,,0.00,,2016-09-29 17:14:00,
2016-09-29 13:19:00,65.6,49.0,30.25,West,270,3.0,-999.0,55,0.00,,,0.00,,2016-09-29 17:19:00,
2016-09-29 13:25:00,64.9,48.0,30.25,SW,225,5.0,-999.0,55,0.00,,,0.00,,2016-09-29 17:25:00,
2016-09-29 13:30:00,64.1,47.0,30.25,SW,225,4.0,-999.0,54,0.00,,,0.00,,2016-09-29 17:30:00,
2016-09-29 13:42:00,64.9,47.0,30.25,South,180,1.0,-999.0,54,0.00,,,0.00,,2016-09-29 17:42:00,
2016-09-29 13:47:00,66.1,48.0,30.24,South,180,3.0,-999.0,51,0.00,,,0.00,,2016-09-29 17:47:00,
2016-09-29 13:53:00,64.8,47.0,30.24,SSW,203,1.0,-999.0,53,0.00,,,0.00,,2016-09-29 17:53:00,
2016-09-29 13:58:00,65.5,47.0,30.24,South,180,3.0,-999.0,53,0.00,,,0.00,,2016-09-29 17:58:00,
2016-09-29 14:04:00,67.3,49.0,30.23,WNW,293,3.0,-999.0,51,0.00,,,0.00,,2016-09-29 18:04:00,
2016-09-29 14:09:00,67.1,48.0,30.23,West,270,5.0,-999.0,51,0.00,,,0.00,,2016-09-29 18:09:00,
2016-09-29 14:15:00,66.5,48.0,30.24,South,180,6.0,-999.0,51,0.00,,,0.00,,2016-09-29 18:15:00,
2016-09-29 14:20:00,66.9,48.0,30.23,SSE,158,4.0,-999.0,51,0.00,,,0.00,,2016-09-29 18:20:00,
2016-09-29 14:26:00,67.1,48.0,30.23,SSW,203,4.0,-999.0,50,0.00,,,0.00,,2016-09-29 18:26:00,
2016-09-29 14:31:00,66.6,48.0,30.23,SSW,203,3.0,-999.0,51,0.00,,,0.00,,2016-09-29 18:31:00,
2016-09-29 14:37:00,67.3,48.0,30.24,WNW,293,4.0,-999.0,50,0.00,,,0.00,,2016-09-29 18:37:00,
2016-09-29 14:43:00,67.3,48.0,30.24,West,270,3.0,-999.0,50,0.00,,,0.00,,2016-09-29 18:43:00,
2016-09-29 14:48:00,68.0,48.0,30.23,WNW,293,3.0,-999.0,50,0.00,,,0.00,,2016-09-29 18:48:00,
2016-09-29 14:54:00,67.6,47.0,30.23,WNW,293,1.0,-999.0,48,0.00,,,0.00,,2016-09-29 18:54:00,
2016-09-29 14:59:00,68.4,48.0,30.23,West,270,1.0,-999.0,48,0.00,,,0.00,,2016-09-29 18:59:00,
2016-09-29 15:05:00,68.6,48.0,30.23,NW,315,4.0,-999.0,48,0.00,,,0.00,,2016-09-29 19:05:00,
2016-09-29 15:10:00,68.0,47.0,30.23,West,270,3.0,-999.0,48,0.00,,,0.00,,2016-09-29 19:10:00,
2016-09-29 15:16:00,69.0,50.0,30.23,NE,45,2.0,-999.0,51,0.00,,,0.00,,2016-09-29 19:16:00,
2016-09-29 15:21:00,68.4,48.0,30.23,ENE,68,1.0,-999.0,49,0.00,,,0.00,,2016-09-29 19:21:00,
2016-09-29 15:32:00,69.3,48.0,30.23,West,270,2.0,-999.0,46,0.00,,,0.00,,2016-09-29 19:32:00,
2016-09-29 15:37:00,69.4,48.0,30.23,WNW,293,3.0,-999.0,48,0.00,,,0.00,,2016-09-29 19:37:00,
2016-09-29 15:43:00,68.4,48.0,30.22,ESE,113,2.0,-999.0,48,0.00,,,0.00,,2016-09-29 19:43:00,
2016-09-29 15:54:00,68.9,47.0,30.23,West,270,0.0,-999.0,46,0.00,,,0.00,,2016-09-29 19:54:00,
2016-09-29 15:59:00,69.3,48.0,30.23,SW,225,2.0,-999.0,46,0.00,,,0.00,,2016-09-29 19:59:00,
2016-09-29 16:05:00,70.0,48.0,30.23,WSW,248,2.0,-999.0,46,0.00,,,0.00,,2016-09-29 20:05:00,
2016-09-29 16:10:00,68.4,47.0,30.24,SSW,203,2.0,-999.0,48,0.00,,,0.00,,2016-09-29 20:10:00,
2016-09-29 16:21:00,68.4,48.0,30.23,ESE,113,5.0,-999.0,48,0.00,,,0.00,,2016-09-29 20:21:00,
2016-09-29 16:27:00,67.6,48.0,30.24,SSW,203,3.0,-999.0,50,0.00,,,0.00,,2016-09-29 20:27:00,
2016-09-29 16:32:00,67.5,48.0,30.24,SSW,203,1.0,-999.0,50,0.00,,,0.00,,2016-09-29 20:32:00,
2016-09-29 16:38:00,67.8,48.0,30.23,West,270,1.0,-999.0,50,0.00,,,0.00,,2016-09-29 20:38:00,
2016-09-29 16:43:00,68.0,48.0,30.24,SW,225,4.0,-999.0,49,0.00,,,0.00,,2016-09-29 20:43:00,
2016-09-29 16:49:00,67.5,47.0,30.24,ESE,113,3.0,-999.0,49,0.00,,,0.00,,2016-09-29 20:49:00,
2016-09-29 16:54:00,67.6,48.0,30.24,South,180,3.0,-999.0,50,0.00,,,0.00,,2016-09-29 20:54:00,
2016-09-29 17:00:00,67.3,48.0,30.24,SE,135,2.0,-999.0,50,0.00,,,0.00,,2016-09-29 21:00:00,
2016-09-29 17:11:00,65.2,46.0,30.25,SSW,203,3.0,-999.0,50,0.00,,,0.00,,2016-09-29 21:11:00,
2016-09-29 17:16:00,65.6,46.0,30.25,SSW,203,4.0,-999.0,50,0.00,,,0.00,,2016-09-29 21:16:00,
2016-09-29 17:22:00,65.8,46.0,30.25,SSE,158,3.0,-999.0,49,0.00,,,0.00,,2016-09-29 21:22:00,
2016-09-29 17:27:00,65.6,46.0,30.25,SSW,203,3.0,-999.0,50,0.00,,,0.00,,2016-09-29 21:27:00,
2016-09-29 17:32:00,65.2,46.0,30.26,South,180,4.0,-999.0,50,0.00,,,0.00,,2016-09-29 21:32:00,
2016-09-29 17:38:00,65.5,46.0,30.25,SSE,158,2.0,-999.0,50,0.00,,,0.00,,2016-09-29 21:38:00,
2016-09-29 17:43:00,65.5,46.0,30.27,West,270,3.0,-999.0,50,0.00,,,0.00,,2016-09-29 21:43:00,
2016-09-29 17:49:00,63.9,45.0,30.26,West,270,2.0,-999.0,50,0.00,,,0.00,,2016-09-29 21:49:00,
2016-09-29 17:54:00,62.7,44.0,30.26,South,180,1.0,-999.0,51,0.00,,,0.00,,2016-09-29 21:54:00,
2016-09-29 18:00:00,62.5,46.0,30.26,SSW,203,2.0,-999.0,55,0.00,,,0.00,,2016-09-29 22:00:00,
2016-09-29 18:05:00,61.5,45.0,30.26,WSW,248,0.0,-999.0,55,0.00,,,0.00,,2016-09-29 22:05:00,
2016-09-29 18:16:00,60.0,47.0,30.26,West,270,2.0,-999.0,63,0.00,,,0.00,,2016-09-29 22:16:00,
2016-09-29 18:21:00,59.2,47.0,30.27,WNW,293,1.0,-999.0,65,0.00,,,0.00,,2016-09-29 22:21:00,
2016-09-29 18:27:00,58.8,47.0,30.27,SW,225,2.0,-999.0,66,0.00,,,0.00,,2016-09-29 22:27:00,
2016-09-29 18:32:00,57.5,48.0,30.27,West,270,1.0,-999.0,71,0.00,,,0.00,,2016-09-29 22:32:00,
2016-09-29 18:38:00,56.7,47.0,30.26,SE,135,0.0,-999.0,70,0.00,,,0.00,,2016-09-29 22:38:00,
2016-09-29 18:43:00,56.0,47.0,30.26,South,180,2.0,-999.0,74,0.00,,,0.00,,2016-09-29 22:43:00,
2016-09-29 18:49:00,55.5,47.0,30.28,WNW,293,2.0,-999.0,74,0.00,,,0.00,,2016-09-29 22:49:00,
2016-09-29 18:54:00,55.1,47.0,30.28,West,270,0.0,-999.0,75,0.00,,,0.00,,2016-09-29 22:54:00,
2016-09-29 19:00:00,54.7,46.0,30.28,ESE,113,0.0,-999.0,75,0.00,,,0.00,,2016-09-29 23:00:00,
2016-09-29 19:06:00,54.0,46.0,30.28,ESE,113,0.0,-999.0,76,0.00,,,0.00,,2016-09-29 23:06:00,
2016-09-29 19:11:00,53.2,46.0,30.28,SSE,158,0.0,-999.0,79,0.00,,,0.00,,2016-09-29 23:11:00,
2016-09-29 19:17:00,53.1,47.0,30.28,ESE,113,0.0,-999.0,80,0.00,,,0.00,,2016-09-29 23:17:00,
2016-09-29 19:22:00,52.6,47.0,30.28,West,270,0.0,-999.0,81,0.00,,,0.00,,2016-09-29 23:22:00,
2016-09-29 19:28:00,52.3,46.0,30.27,South,180,0.0,-999.0,81,0.00,,,0.00,,2016-09-29 23:28:00,
2016-09-29 19:33:00,51.8,46.0,30.27,West,270,1.0,-999.0,83,0.00,,,0.00,,2016-09-29 23:33:00,
2016-09-29 19:39:00,51.4,46.0,30.27,WSW,248,2.0,-999.0,83,0.00,,,0.00,,2016-09-29 23:39:00,
2016-09-29 19:44:00,51.4,46.0,30.27,SE,135,1.0,-999.0,83,0.00,,,0.00,,2016-09-29 23:44:00,
2016-09-29 19:50:00,51.3,46.0,30.28,ENE,68,1.0,-999.0,83,0.00,,,0.00,,2016-09-29 23:50:00,
2016-09-29 19:55:00,51.0,46.0,30.28,NW,315,1.0,-999.0,83,0.00,,,0.00,,2016-09-29 23:55:00,
2016-09-29 20:00:00,50.9,46.0,30.28,West,270,2.0,-999.0,83,0.00,,,0.00,,2016-09-30 00:00:00,
2016-09-29 20:05:00,51.3,46.0,30.28,SSE,158,2.0,-999.0,83,0.00,,,0.00,,2016-09-30 00:05:00,
2016-09-29 20:11:00,52.3,46.0,30.28,South,180,5.0,-999.0,81,0.00,,,0.00,,2016-09-30 00:11:00,
2016-09-29 20:16:00,52.2,46.0,30.29,West,270,2.0,-999.0,81,0.00,,,0.00,,2016-09-30 00:16:00,
2016-09-29 20:22:00,51.8,46.0,30.29,SE,135,2.0,-999.0,81,0.00,,,0.00,,2016-09-30 00:22:00,
2016-09-29 20:28:00,51.5,46.0,30.30,SE,135,2.0,-999.0,81,0.00,,,0.00,,2016-09-30 00:28:00,
2016-09-29 20:33:00,51.3,46.0,30.30,SE,135,1.0,-999.0,83,0.00,,,0.00,,2016-09-30 00:33:00,
2016-09-29 20:39:00,50.9,46.0,30.30,ESE,113,1.0,-999.0,83,0.00,,,0.00,,2016-09-30 00:39:00,
2016-09-29 20:44:00,50.1,45.0,30.30,SE,135,0.0,-999.0,85,0.00,,,0.00,,2016-09-30 00:44:00,
2016-09-29 20:55:00,49.4,45.0,30.30,South,180,0.0,-999.0,86,0.00,,,0.00,,2016-09-30 00:55:00,
2016-09-29 21:00:00,49.2,45.0,30.31,South,180,0.0,-999.0,86,0.00,,,0.00,,2016-09-30 01:00:00,
2016-09-29 21:05:00,49.0,45.0,30.30,ESE,113,0.0,-999.0,88,0.00,,,0.00,,2016-09-30 01:05:00,
2016-09-29 21:11:00,48.9,45.0,30.30,NE,45,0.0,-999.0,88,0.00,,,0.00,,2016-09-30 01:11:00,
2016-09-29 21:16:00,48.6,45.0,30.30,WSW,248,1.0,-999.0,90,0.00,,,0.00,,2016-09-30 01:16:00,
2016-09-29 21:22:00,48.5,45.0,30.30,West,270,0.0,-999.0,88,0.00,,,0.00,,2016-09-30 01:22:00,
2016-09-29 21:27:00,48.5,45.0,30.30,SSE,158,1.0,-999.0,88,0.00,,,0.00,,2016-09-30 01:27:00,
2016-09-29 21:33:00,48.2,45.0,30.31,SSE,158,0.0,-999.0,90,0.00,,,0.00,,2016-09-30 01:33:00,
2016-09-29 21:38:00,48.2,45.0,30.30,South,180,0.0,-999.0,90,0.00,,,0.00,,2016-09-30 01:38:00,
2016-09-29 21:44:00,47.7,45.0,30.31,SSE,158,0.0,-999.0,91,0.00,,,0.00,,2016-09-30 01:44:00,
2016-09-29 21:49:00,47.6,45.0,30.31,SSE,158,0.0,-999.0,91,0.00,,,0.00,,2016-09-30 01:49:00,
2016-09-29 21:55:00,47.3,45.0,30.31,ESE,113,1.0,-999.0,91,0.00,,,0.00,,2016-09-30 01:55:00,
2016-09-29 22:00:00,47.1,44.0,30.31,SW,225,0.0,-999.0,91,0.00,,,0.00,,2016-09-30 02:00:00,
2016-09-29 22:06:00,46.9,44.0,30.31,NNE,23,0.0,-999.0,93,0.00,,,0.00,,2016-09-30 02:06:00,
2016-09-29 22:11:00,46.7,44.0,30.31,NNE,23,0.0,-999.0,91,0.00,,,0.00,,2016-09-30 02:11:00,
2016-09-29 22:17:00,46.5,44.0,30.31,WNW,293,1.0,-999.0,93,0.00,,,0.00,,2016-09-30 02:17:00,
2016-09-29 22:22:00,46.5,44.0,30.31,South,180,0.0,-999.0,93,0.00,,,0.00,,2016-09-30 02:22:00,
2016-09-29 22:28:00,46.1,44.0,30.32,ESE,113,0.0,-999.0,93,0.00,,,0.00,,2016-09-30 02:28:00,
2016-09-29 22:33:00,46.1,44.0,30.32,WNW,293,0.0,-999.0,93,0.00,,,0.00,,2016-09-30 02:33:00,
2016-09-29 22:38:00,45.9,44.0,30.31,NE,45,0.0,-999.0,93,0.00,,,0.00,,2016-09-30 02:38:00,
2016-09-29 22:44:00,46.1,44.0,30.32,WNW,293,0.0,-999.0,95,0.00,,,0.00,,2016-09-30 02:44:00,
2016-09-29 22:49:00,46.1,44.0,30.32,South,180,1.0,-999.0,95,0.00,,,0.00,,2016-09-30 02:49:00,
2016-09-29 22:55:00,45.9,44.0,30.32,ESE,113,0.0,-999.0,95,0.00,,,0.00,,2016-09-30 02:55:00,